[[{"header":{"parameterUnit":"m.s-1","parameterCategory":1,"la1":30.2991,"la2":30.254,"lo1":-89.0895,"lo2":-89.0444,"dy":0.0017,"dx":0.0017,"nx":28,"ny":28,"refTime":"2025-02-01T03:00:00:Z","depth":0,"parameterNumber":2,"parameterNumberName":"U-component_of_WINDS"},"data":[0,0,0,0,0,0,0,0,0,0,0,0,0,0,0,0,0,0,0,0,0,0,0,0,0,0,0,0,0,0,0,0,0,0,0,0,0,0,0,0,0,0,0,0,0,0,0,0,0,0,0,0,0,0,0,0,0,0,-0.9922,-0.9921,0,-0.9837,-0.9837,-0.9836,-0.9782,-0.9781,-0.9781,-0.9781,-0.9693,-0.9691,-0.9689,0,0,0,0,0,0,0,0,0,0,0,0,0,-1.0037,-1.0035,-0.9922,-0.9921,-0.992,-0.9838,-0.9836,-0.9835,-0.9782,-0.9781,-0.9781,-0.9781,-0.9694,-0.9692,-0.9689,0,0,0,0,0,0,0,0,0,0,0,0,0,-0.9973,-1.0034,-0.9922,-0.9883,-0.9879,-0.9838,-0.9836,-0.9835,-0.9782,-0.9781,-0.9781,-0.978,-0.9695,-0.9692,-0.9689,-0.968,0,0,-0.9679,-0.9678,0,0,0,0,0,0,0,0,-0.9977,-0.9969,-0.989,-0.9886,-0.9881,-0.982,-0.9845,-0.9783,-0.9782,-0.9819,-0.9781,-0.978,-0.9736,-0.9729,-0.9714,-0.9675,-0.9672,-0.9679,-0.9677,-0.9676,-0.9675,0,0,0,0,0,0,0,-0.9981,-0.9972,-0.9888,-0.9889,-0.9883,-0.987,-0.986,-0.9833,-0.9781,-0.9815,-0.9811,-0.9802,-0.9733,-0.9717,-0.9712,-0.967,-0.9679,-0.9677,-0.9675,-0.9674,-0.9622,-0.9622,0,0,0,0,0,0,-0.9992,-0.9976,-0.9891,-0.9886,-0.9929,-0.9868,-0.9858,-0.984,-0.9781,-0.9772,-0.9803,-0.98,-0.9723,-0.9716,-0.9709,-0.9695,-0.9676,-0.9673,-0.9671,-0.9621,-0.9622,-0.9622,0,0,0,0,0,0,-0.9994,-0.9985,-0.9894,-0.993,-0.9917,-0.9867,-0.9847,-0.9838,-0.9823,-0.9771,-0.9762,-0.9796,-0.9722,-0.9713,-0.9688,-0.9691,-0.9672,-0.9669,-0.9621,-0.9621,-0.9622,-0.9666,0,0,0,0,0,0,-0.9998,-0.9986,-0.9982,-0.993,-0.9916,-0.9875,-0.9847,-0.9837,-0.9818,-0.9813,-0.9763,-0.9754,-0.9721,-0.9693,-0.9685,-0.9686,-0.9667,-0.962,-0.9621,-0.9622,-0.9664,-0.9669,-0.9672,0,0,0,0,0,-1.0002,-0.9997,-0.9982,-0.9972,-0.9909,-0.9875,-0.9867,-0.9829,-0.9818,-0.9813,-0.9781,-0.9755,-0.9692,-0.969,-0.9681,-0.9682,-0.962,-0.9621,-0.9622,-0.9663,-0.9668,-0.9672,0,0,0,0,0,0,-1.0049,-0.9989,-0.9972,-0.9949,-0.9918,-0.9866,-0.9859,-0.9836,-0.9806,-0.9803,-0.9758,-0.9747,-0.9727,-0.9702,-0.9701,-0.9671,-0.9653,-0.9652,-0.9687,-0.9692,-0.9696,-0.9701,-0.9664,0,0,0,0,0,-1.0057,-1.0034,-0.9983,-0.9968,-0.9954,-0.9909,-0.9893,-0.9867,-0.9832,-0.9819,-0.9784,-0.9751,-0.9724,-0.9707,-0.9679,-0.9661,-0.965,-0.9658,-0.9661,-0.9665,-0.9664,-0.9655,-0.9658,-0.9626,-0.9626,-0.9626,0,0,-1.0072,-1.0037,-1.0025,-0.9977,-0.9949,-0.9927,-0.9898,-0.9875,-0.9858,-0.9815,-0.9789,-0.9763,-0.9723,-0.9703,-0.9691,-0.9681,-0.9671,-0.9666,-0.9669,-0.9667,-0.9656,-0.9659,-0.9662,-0.9626,-0.9626,-0.9626,0,0,-1.0089,-1.006,-1.0045,-1.0019,-0.9978,-0.9949,-0.9946,-0.9898,-0.9879,-0.9853,-0.982,-0.98,-0.9753,-0.9727,-0.9707,-0.9718,-0.9693,-0.971,-0.9729,-0.972,-0.9723,-0.9725,-0.9729,-0.9731,-0.971,-0.971,-0.971,0,-1.0113,-1.0078,-1.004,-1.002,-1.0,-0.9961,-0.9946,-0.9922,-0.9874,-0.9862,-0.9851,-0.9794,-0.9764,-0.9737,-0.974,-0.9726,-0.9721,-0.9715,-0.9726,-0.9727,-0.9729,-0.9732,-0.9734,-0.9712,-0.9712,-0.9712,-0.9712,0,-1.011,-1.0087,-1.0079,-1.0035,-1.0015,-0.9997,-0.9957,-0.9941,-0.9919,-0.9891,-0.9866,-0.983,-0.9794,-0.9786,-0.9763,-0.9757,-0.9752,-0.9734,-0.9715,-0.9735,-0.9737,-0.9738,-0.9716,-0.9715,-0.9714,-0.9714,0,0,-1.0151,-1.0088,-1.0086,-1.0066,-1.002,-1.0001,-0.9983,-0.9949,-0.9937,-0.9906,-0.9889,-0.9853,-0.9837,-0.9815,-0.9789,-0.9781,-0.9793,-0.9765,-0.9763,-0.9771,-0.9784,-0.9797,-0.9799,-0.9777,-0.9777,-0.9777,-0.9788,0,-1.016,-1.0125,-1.0092,-1.0068,-1.0047,-1.0011,-0.9995,-0.9966,-0.994,-0.9918,-0.989,-0.9865,-0.9846,-0.9833,-0.9824,-0.9793,-0.9795,-0.9792,-0.9761,-0.9761,-0.9772,-0.98,-0.9813,-0.9825,-0.9788,-0.9788,-0.9788,0,-1.0166,-1.0138,-1.0113,-1.007,-1.006,-1.0046,-1.0014,-0.9993,-0.996,-0.9942,-0.9919,-0.9892,-0.9872,-0.9857,-0.9828,-0.9828,-0.9814,-0.9797,-0.9797,-0.9791,-0.9775,-0.9796,-0.9827,-0.9829,-0.9789,-0.9789,-0.9789,0,-1.0198,-1.0154,-1.0134,-1.0118,-1.0068,-1.0059,-1.0038,-1.0004,-0.9987,-0.9959,-0.9947,-0.9917,-0.99,-0.9878,-0.9844,-0.9837,-0.982,-0.9802,-0.9805,-0.9806,-0.9802,-0.9802,-0.9831,-0.9794,-0.9794,-0.9794,-0.9794,0,-1.0211,-1.0198,-1.0148,-1.0135,-1.0119,-1.0082,-1.0067,-1.0043,-1.0013,-0.9996,-0.9964,-0.9948,-0.9905,-0.9884,-0.9858,-0.9839,-0.9832,-0.9817,-0.981,-0.982,-0.9821,-0.9809,-0.9807,-0.9794,-0.9794,-0.9794,-0.9794,0,-1.0244,-1.021,-1.0186,-1.0142,-1.013,-1.012,-1.0082,-1.0069,-1.0043,-1.0022,-1.0015,-0.9974,-0.9948,-0.9913,-0.9876,-0.9858,-0.9843,-0.9832,-0.9855,-0.985,-0.9855,-0.9856,-0.9876,-0.9878,-0.9841,-0.9841,-0.9842,0,-1.0254,-1.0243,-1.0198,-1.0185,-1.0165,-1.0143,-1.0126,-1.0089,-1.0073,-1.0035,-1.0027,-0.9999,-0.9975,-0.9936,-0.9903,-0.9875,-0.9863,-0.9873,-0.9859,-0.9869,-0.9863,-0.9864,-0.9863,-0.9876,-0.9876,-0.9877,-0.9877,0,-1.0276,-1.0261,-1.0237,-1.0209,-1.0189,-1.0165,-1.0139,-1.0129,-1.0088,-1.0071,-1.0045,-1.0027,-0.999,-0.9963,-0.9932,-0.991,-0.9887,-0.9882,-0.9881,-0.989,-0.9904,-0.9897,-0.9863,-0.9881,-0.9881,-0.9881,-0.988,-0.988,-1.0297,-1.0286,-1.0254,-1.0229,-1.0206,-1.0183,-1.0169,-1.0143,-1.012,-1.0088,-1.0069,-1.0044,-1.0013,-0.9968,-0.9948,-0.9928,-0.9919,-0.9918,-0.9917,-0.9917,-0.9921,-0.9908,-0.9923,-0.9922,-0.9922,-0.9922,-0.9922,0,-1.0318,-1.0296,-1.0274,-1.0239,-1.022,-1.0201,-1.0172,-1.0158,-1.0137,-1.0109,-1.0087,-1.0058,-1.0033,-0.9999,-0.9971,-0.9963,-0.9951,-0.9956,-0.9956,-0.9952,-0.9931,-0.9934,-0.9966,-0.9966,-0.9966,-0.9966,-0.9966,-0.9966,-1.0326,-1.0306,-1.0288,-1.0257,-1.0235,-1.0211,-1.0196,-1.0176,-1.0154,-1.0123,-1.0102,-1.0081,-1.0052,-1.0022,-0.9999,-0.9989,-0.9981,-0.9989,-0.9977,-0.9957,-0.9953,-0.9949,-0.9952,-0.9988,-0.9988,-0.9999,-0.9999,-1.0]},{"header":{"parameterUnit":"m.s-1","parameterCategory":1,"la1":30.2991,"la2":30.254,"lo1":-89.0895,"lo2":-89.0444,"dy":0.0017,"dx":0.0017,"nx":28,"ny":28,"refTime":"2025-02-01T03:00:00:Z","depth":0,"parameterNumber":3,"parameterNumberName":"V-component_of_WINDS"},"data":[0,0,0,0,0,0,0,0,0,0,0,0,0,0,0,0,0,0,0,0,0,0,0,0,0,0,0,0,0,0,0,0,0,0,0,0,0,0,0,0,0,0,0,0,0,0,0,0,0,0,0,0,0,0,0,0,0,0,1.8334,1.8334,0,1.8293,1.8292,1.8292,1.8344,1.8346,1.8348,1.835,1.8301,1.8298,1.8295,0,0,0,0,0,0,0,0,0,0,0,0,0,1.8455,1.8453,1.8334,1.8334,1.8333,1.8293,1.8292,1.8292,1.8344,1.8346,1.8348,1.8351,1.8302,1.8299,1.8295,0,0,0,0,0,0,0,0,0,0,0,0,0,1.8407,1.8452,1.8335,1.8355,1.8356,1.8293,1.8292,1.8291,1.8343,1.8346,1.8349,1.8352,1.8304,1.8299,1.8294,1.8208,0,0,1.828,1.8278,0,0,0,0,0,0,0,0,1.8409,1.8402,1.8352,1.8353,1.8355,1.8327,1.8317,1.8263,1.8342,1.8348,1.835,1.8353,1.8307,1.8302,1.8288,1.8206,1.8204,1.828,1.8277,1.8275,1.8274,0,0,0,0,0,0,0,1.8413,1.8404,1.8318,1.8351,1.8353,1.8364,1.8361,1.8307,1.8311,1.8348,1.8351,1.8346,1.8308,1.8292,1.8287,1.8203,1.828,1.8276,1.8273,1.8271,1.8048,1.8045,0,0,0,0,0,0,1.8414,1.8407,1.8319,1.8317,1.839,1.836,1.8356,1.8333,1.8312,1.8312,1.8343,1.8349,1.8299,1.8292,1.8286,1.8183,1.8275,1.8271,1.8268,1.8051,1.8047,1.8044,0,0,0,0,0,0,1.8417,1.8406,1.8321,1.8363,1.8353,1.8355,1.8328,1.833,1.8314,1.8309,1.831,1.8327,1.8301,1.8292,1.8227,1.8182,1.8269,1.8265,1.8055,1.805,1.8045,1.7977,0,0,0,0,0,0,1.842,1.8407,1.8375,1.8362,1.835,1.8264,1.8325,1.8327,1.8307,1.8313,1.8294,1.8293,1.8302,1.8234,1.8223,1.8177,1.8261,1.8059,1.8052,1.8047,1.7983,1.7971,1.796,0,0,0,0,0,1.8424,1.8356,1.8373,1.8362,1.8311,1.8261,1.8255,1.8268,1.8303,1.827,1.8267,1.8294,1.8189,1.8227,1.8215,1.8167,1.8061,1.8054,1.8047,1.7989,1.7973,1.796,0,0,0,0,0,0,1.8361,1.8354,1.8373,1.8299,1.8281,1.827,1.8229,1.8251,1.8222,1.8228,1.8245,1.824,1.8171,1.8163,1.8205,1.8083,1.8131,1.8121,1.809,1.8076,1.8064,1.8067,1.8257,0,0,0,0,0,1.8339,1.8301,1.8297,1.8231,1.8222,1.8227,1.8206,1.8219,1.82,1.8191,1.8184,1.8163,1.8125,1.81,1.8065,1.7983,1.7979,1.7944,1.7932,1.7923,1.7913,1.7869,1.7854,1.802,1.802,1.802,0,0,1.8292,1.8284,1.8258,1.8219,1.8206,1.8165,1.822,1.8174,1.8144,1.8184,1.8123,1.8116,1.8094,1.802,1.7987,1.8011,1.7867,1.7914,1.7906,1.7902,1.786,1.7844,1.783,1.8015,1.8016,1.8017,0,0,1.8185,1.8176,1.8121,1.8107,1.8088,1.8093,1.808,1.8066,1.8064,1.8004,1.8033,1.7996,1.7931,1.7915,1.7898,1.7786,1.7809,1.7774,1.7712,1.7669,1.7656,1.7644,1.7604,1.7589,1.7766,1.7765,1.7765,0,1.8129,1.807,1.8089,1.8042,1.8023,1.806,1.8004,1.7989,1.7959,1.7945,1.7973,1.7893,1.788,1.7803,1.7776,1.7761,1.7746,1.7776,1.7656,1.7645,1.7634,1.7596,1.7581,1.7761,1.7762,1.7762,1.7763,0,1.8001,1.796,1.7918,1.789,1.7867,1.7815,1.7825,1.7799,1.7813,1.7814,1.7752,1.7739,1.7702,1.7685,1.7698,1.7609,1.7625,1.7654,1.7703,1.7614,1.7578,1.7564,1.7755,1.7757,1.7758,1.7759,0,0,1.7852,1.7837,1.7821,1.781,1.7792,1.776,1.7709,1.7676,1.7653,1.7631,1.7589,1.7534,1.7561,1.7542,1.7553,1.7515,1.7428,1.7549,1.7549,1.7527,1.7329,1.7307,1.729,1.7444,1.7441,1.7439,1.7331,0,1.7746,1.7661,1.7677,1.7594,1.7556,1.7591,1.7547,1.7531,1.753,1.7497,1.7496,1.7457,1.7497,1.7485,1.7449,1.7446,1.7388,1.7454,1.7403,1.7401,1.7407,1.7271,1.7247,1.7146,1.7317,1.7315,1.7313,0,1.761,1.7585,1.7499,1.7488,1.7473,1.7433,1.7404,1.7372,1.7354,1.7357,1.7336,1.7355,1.7304,1.7354,1.7284,1.7328,1.7308,1.7304,1.73,1.7295,1.7351,1.7262,1.7114,1.7098,1.7292,1.7293,1.7295,0,1.751,1.7455,1.7396,1.7385,1.7371,1.7342,1.7335,1.732,1.7299,1.7273,1.726,1.7227,1.7209,1.7183,1.7192,1.7228,1.7119,1.7171,1.7119,1.7118,1.7093,1.7094,1.6939,1.7082,1.7082,1.7082,1.7082,0,1.7388,1.7334,1.7351,1.7315,1.7254,1.7273,1.7212,1.7209,1.7196,1.7158,1.7186,1.715,1.7166,1.713,1.7137,1.7077,1.7069,1.7068,1.7071,1.7065,1.7065,1.7052,1.7059,1.7078,1.7079,1.708,1.708,0,1.7266,1.7275,1.7213,1.7206,1.7203,1.7159,1.7152,1.7118,1.7121,1.7073,1.7063,1.7066,1.7026,1.7034,1.6989,1.6993,1.6918,1.693,1.6925,1.6927,1.6875,1.688,1.6705,1.6683,1.684,1.6838,1.6837,0,1.7187,1.7147,1.7136,1.7114,1.7105,1.7069,1.7048,1.7065,1.7042,1.7019,1.6987,1.695,1.6922,1.6856,1.6853,1.6819,1.683,1.6771,1.6824,1.6821,1.6828,1.683,1.6826,1.676,1.6758,1.6756,1.6755,0,1.7047,1.7054,1.7025,1.6996,1.6971,1.6949,1.693,1.691,1.6925,1.6898,1.6858,1.6836,1.6792,1.6754,1.6723,1.6714,1.6736,1.6739,1.6725,1.6719,1.6717,1.6717,1.6895,1.6742,1.6744,1.6744,1.6745,1.6746,1.6944,1.691,1.6897,1.6863,1.6851,1.6832,1.68,1.6799,1.6767,1.6734,1.6745,1.67,1.6684,1.6644,1.6632,1.6596,1.6617,1.6597,1.6592,1.6587,1.658,1.6724,1.659,1.659,1.6591,1.6591,1.6591,0,1.6805,1.6799,1.6768,1.6741,1.6714,1.674,1.672,1.6695,1.6656,1.664,1.6611,1.6566,1.653,1.6526,1.6492,1.6464,1.6473,1.6454,1.6456,1.6453,1.6563,1.6578,1.6447,1.6447,1.6447,1.6447,1.6447,1.6447,1.6729,1.6673,1.6678,1.6616,1.661,1.6568,1.6554,1.6537,1.6524,1.6473,1.6444,1.6442,1.643,1.6396,1.6364,1.6363,1.6349,1.6326,1.6329,1.6431,1.6445,1.6459,1.6474,1.6323,1.6322,1.6222,1.6221,1.6221]}]]